Date String (YYYY-MM-DD hh:mm:ss) UTC,Instrument flags,Ambient pressure (hPa),Sample flow (lpm),Bypass flow (lpm),Sample temperature (°C),Ambient temperature (°C),ASC tube jacket temperature (°C),LED temperature (°C),Box temperature (°C),Sample RH (%),Span deviation,Mass concentration (μg/m³),Mass concentration (μg/m³),Mass concentration (μg/m³)
DateTimeUTC,F1_M11,P_M11,Q1_M11,Q2_M11,T1_M11,T2_M11,T3_M11,T4_M11,T5_M11,U1_M11,ZSPAN_M11,X0_M11,X2_M11,X1_M11
2023-01-30 09:00:00,,0825.3,5.02,0.00,22.5,21.0,00.0,31.4,24.1,03.6,0000.0,0007.51,0004.14,0003.83
2023-01-30 09:01:00,,0825.3,5.00,0.00,22.6,21.9,00.0,31.4,24.3,03.6,0000.0,0007.50,0004.14,0003.84
2023-01-30 09:02:00,,0825.3,5.01,0.00,22.7,22.7,00.0,31.4,24.6,03.6,0000.0,0007.58,0004.19,0003.86
2023-01-30 09:03:00,,0825.2,4.99,0.00,22.8,23.2,00.0,31.4,24.8,03.6,0000.0,0007.06,0004.21,0003.88
2023-01-30 09:04:00,,0825.3,5.01,0.00,22.8,22.7,00.0,31.5,24.7,03.6,0000.0,0007.23,0004.23,0003.90
2023-01-30 09:05:00,,0825.3,5.01,0.00,22.8,22.1,00.0,31.5,24.5,03.6,-000.2,0007.55,0004.22,0003.90
2023-01-30 09:06:00,,0825.2,4.99,0.00,22.7,21.6,00.0,31.5,24.3,03.6,0000.0,0007.49,0004.19,0003.89
2023-01-30 09:07:00,,0825.2,5.00,0.00,22.7,21.2,00.0,31.5,24.2,03.6,0000.1,0007.38,0004.14,0003.86
2023-01-30 09:08:00,,0825.3,5.00,0.00,22.6,21.0,00.0,31.5,24.1,03.6,0000.7,0007.27,0004.11,0003.86
2023-01-30 09:09:00,,0825.3,5.01,0.00,22.5,20.7,00.0,31.5,24.0,03.6,0000.4,0007.27,0004.12,0003.86
2023-01-30 09:10:00,,0825.3,5.02,0.00,22.5,20.8,00.0,31.5,24.0,03.6,-000.0,0007.25,0004.11,0003.86
2023-01-30 09:11:00,,0825.3,5.00,0.00,22.6,21.7,00.0,31.4,24.3,03.6,-000.6,0007.15,0004.11,0003.86
2023-01-30 09:12:00,,0825.3,5.00,0.00,22.7,22.6,00.0,31.4,24.6,03.6,-000.1,0007.13,0004.10,0003.84
2023-01-30 09:13:00,,0825.3,4.99,0.00,22.7,22.7,00.0,31.4,24.6,03.6,-000.0,0007.07,0004.08,0003.84
2023-01-30 09:14:00,,0825.3,5.02,0.00,22.7,22.2,00.0,31.5,24.5,03.6,0000.0,0007.04,0004.06,0003.83
2023-01-30 09:15:00,,0825.3,5.00,0.00,22.7,21.7,00.0,31.5,24.4,03.6,-000.0,0006.65,0004.04,0003.81
2023-01-30 09:16:00,,0825.3,4.97,0.00,22.6,21.3,00.0,31.5,24.2,03.6,-000.3,0006.03,0004.06,0003.84
2023-01-30 09:17:00,,0825.2,5.01,0.00,22.6,21.0,00.0,31.5,24.1,03.6,-000.4,0006.15,0004.10,0003.87
2023-01-30 09:18:00,,0825.2,5.01,0.00,22.5,20.8,00.0,31.5,24.0,03.6,-000.1,0006.25,0004.14,0003.90
2023-01-30 09:19:00,,0825.3,5.01,0.00,22.5,20.8,00.0,31.4,24.0,03.6,-000.2,0006.40,0004.18,0003.92
2023-01-30 09:20:00,,0825.2,5.00,0.00,22.5,21.7,00.0,31.4,24.3,03.6,0000.1,0006.86,0004.24,0003.92
2023-01-30 09:21:00,,0825.2,5.00,0.00,22.6,22.6,00.0,31.4,24.5,03.6,0000.7,0007.13,0004.28,0003.95
2023-01-30 09:22:00,,0825.3,5.01,0.00,22.7,23.2,00.0,31.4,24.7,03.6,0000.6,0007.31,0004.31,0003.97
2023-01-30 09:23:00,,0825.3,5.00,0.00,22.8,22.9,00.0,31.5,24.7,03.6,0000.0,0007.48,0004.31,0003.97
2023-01-30 09:24:00,,0825.3,4.98,0.00,22.8,22.3,00.0,31.5,24.6,03.6,-000.2,0007.47,0004.31,0003.98
2023-01-30 09:25:00,,0825.3,5.01,0.00,22.7,21.8,00.0,31.5,24.4,03.6,0000.1,0007.46,0004.33,0004.01
2023-01-30 09:26:00,,0825.3,4.98,0.00,22.7,21.4,00.0,31.5,24.3,03.6,0000.3,0007.61,0004.38,0004.05
2023-01-30 09:27:00,,0825.3,5.00,0.00,22.6,21.1,00.0,31.5,24.2,03.6,0000.1,0007.94,0004.43,0004.08
2023-01-30 09:28:00,,0825.2,5.00,0.00,22.6,20.9,00.0,31.5,24.1,03.6,0000.0,0008.03,0004.48,0004.10
2023-01-30 09:29:00,,0825.2,5.01,0.00,22.5,20.8,00.0,31.5,24.0,03.6,-000.2,0008.13,0004.52,0004.13
2023-01-30 09:30:00,,0825.2,5.01,0.00,22.6,21.6,00.0,31.4,24.3,03.6,-000.3,0008.18,0004.55,0004.17
2023-01-30 09:31:00,,0825.3,4.98,0.00,22.7,22.5,00.0,31.4,24.5,03.6,-000.3,0008.07,0004.58,0004.24
2023-01-30 09:32:00,,0825.3,4.99,0.00,22.8,22.9,00.0,31.4,24.7,03.6,-000.3,0008.10,0004.64,0004.29
2023-01-30 09:33:00,,0825.2,5.06,0.00,22.8,22.4,00.0,31.5,24.6,03.6,0000.0,0008.13,0004.70,0004.34
2023-01-30 09:34:00,,0825.2,4.95,0.00,22.7,21.9,00.0,31.5,24.4,03.6,0000.2,0008.09,0004.76,0004.39
2023-01-30 09:35:00,,0825.1,4.98,0.00,22.7,21.4,00.0,31.5,24.3,03.6,0000.6,0008.38,0004.83,0004.44
2023-01-30 09:36:00,,0825.2,5.00,0.00,22.6,21.1,00.0,31.5,24.2,03.6,0000.7,0008.73,0004.88,0004.46
2023-01-30 09:37:00,,0825.3,4.99,0.00,22.6,20.9,00.0,31.5,24.1,03.6,0001.5,0008.67,0004.87,0004.45
2023-01-30 09:38:00,,0825.2,5.00,0.00,22.5,20.7,00.0,31.5,24.0,03.6,0001.5,0008.37,0004.83,0004.42
2023-01-30 09:39:00,,0825.1,5.01,0.00,22.5,21.5,00.0,31.4,24.2,03.6,0001.9,0008.36,0004.81,0004.41
2023-01-30 09:40:00,,0825.2,5.01,0.00,22.6,22.4,00.0,31.4,24.5,03.6,0002.0,0008.33,0004.80,0004.41
2023-01-30 09:41:00,,0825.3,5.00,0.00,22.7,22.9,00.0,31.4,24.7,03.6,0001.9,0008.32,0004.79,0004.39
2023-01-30 09:42:00,,0825.3,4.99,0.00,22.7,22.4,00.0,31.5,24.6,03.6,0001.9,0008.41,0004.78,0004.36
2023-01-30 09:43:00,,0825.1,5.03,0.00,22.7,21.9,00.0,31.5,24.4,03.6,0002.1,0008.33,0004.71,0004.32
2023-01-30 09:44:00,,0825.1,4.98,0.00,22.7,21.5,00.0,31.5,24.3,03.6,0002.0,0008.59,0004.66,0004.27
2023-01-30 09:45:00,,0825.2,5.00,0.00,22.6,21.2,00.0,31.5,24.2,03.6,0001.4,0008.95,0004.64,0004.24
2023-01-30 09:46:00,,0825.2,4.99,0.00,22.6,20.9,00.0,31.5,24.1,03.6,0001.1,0008.75,0004.62,0004.20
2023-01-30 09:47:00,,0825.2,4.98,0.00,22.5,20.8,00.0,31.4,24.0,03.6,0000.8,0008.53,0004.62,0004.21
2023-01-30 09:48:00,,0825.2,5.03,0.00,22.5,21.5,00.0,31.4,24.2,03.6,0000.6,0008.58,0004.64,0004.24
2023-01-30 09:49:00,,0825.2,4.99,0.00,22.6,22.4,00.0,31.4,24.5,03.6,0001.2,0008.63,0004.68,0004.26
2023-01-30 09:50:00,,0825.2,5.01,0.00,22.7,22.9,00.0,31.4,24.7,03.6,0001.2,0008.57,0004.69,0004.28
2023-01-30 09:51:00,,0825.2,4.99,0.00,22.7,22.4,00.0,31.5,24.6,03.6,0001.1,0008.59,0004.72,0004.30
2023-01-30 09:52:00,,0825.1,5.01,0.00,22.7,21.9,00.0,31.5,24.4,03.6,0001.7,0008.60,0004.73,0004.31
2023-01-30 09:53:00,,0825.1,4.98,0.00,22.7,21.5,00.0,31.5,24.3,03.6,0002.1,0008.50,0004.72,0004.31
2023-01-30 09:54:00,,0825.1,4.99,0.00,22.6,21.2,00.0,31.5,24.2,03.6,0002.0,0008.47,0004.72,0004.31
2023-01-30 09:55:00,,0825.1,5.00,0.00,22.6,20.9,00.0,31.5,24.1,03.6,0002.0,0008.20,0004.72,0004.32
2023-01-30 09:56:00,,0825.1,5.00,0.00,22.5,20.8,00.0,31.5,24.0,03.6,0002.6,0007.72,0004.71,0004.32
2023-01-30 09:57:00,,0825.1,5.00,0.00,22.5,21.4,00.0,31.4,24.2,03.6,0002.5,0007.67,0004.69,0004.32
2023-01-30 09:58:00,,0825.0,5.01,0.00,22.6,22.3,00.0,31.4,24.5,03.6,0001.2,0007.61,0004.67,0004.31
2023-01-30 09:59:00,,0824.9,4.99,0.00,22.7,23.1,00.0,31.4,24.7,03.6,0000.0,0007.57,0004.65,0004.29
